Change the Weather History Date:

Thursday, July 4, 2013

  Actual Average Record
Temperature  
Mean Temperature 76 °F 72 °F  
Max Temperature 83 °F 82 °F 95 °F (1949)
Min Temperature 68 °F 62 °F 53 °F (1986)
Degree Days  
Heating Degree Days 0 0  
Month to date heating degree days 0 0  
Since 1 June heating degree days 21 38  
Since 1 July heating degree days 0 0  
Cooling Degree Days 11    
Month to date cooling degree days 39  
Year to date cooling degree days 279  
Since 1 June cooling degree days 173  
Growing Degree Days 25 (Base 50)    
Moisture  
Dew Point 68 °F    
Average Humidity 81    
Maximum Humidity 100    
Minimum Humidity 62    
Precipitation  
Precipitation 0.25 in 0.12 in 1.01 in (1982)
Month to date precipitation 1.21 0.44  
Sea Level Pressure  
Sea Level Pressure 30.18 in    
Wind  
Wind Speed 5 mph (SSW)    
Max Wind Speed 13 mph    
Max Gust Speed 20 mph    
Visibility 8 miles    
Events Rain    
T = Trace of Precipitation, MM = Missing Value Source: NWS Daily Summary

Daily Weather History Graph

Daily Weather History Graph

Search for Another Location

Airport or City:

Trip Planner

Search our weather history database for the weather conditions in past years. The results will help you decide how hot, cold, wet, or windy it might be!

Date:

Astronomy

Jul. 04, 2013 Rise Set
Actual Time 5:58 AM EDT 8:55 PM EDT
Civil Twilight 5:25 AM EDT 9:27 PM EDT
Nautical Twilight 4:44 AM EDT 10:09 PM EDT
Astronomical Twilight 3:56 AM EDT 10:57 PM EDT
Moon 3:14 AM EDT (7/4) 5:58 PM EDT (7/4)
Length of Visible Light 16h 01m
Length of Day
14h 56m
Waning Crescent, 11% of the Moon is Illuminated
Jul 4
Waning Crescent
Jul 8
New
Jul 15
First Quarter
Jul 22
Full
Jul 29
Last Quarter

Hourly Weather History & Observations

Time (EDT) Temp. Heat Index Dew Point Humidity Pressure Visibility Wind Dir Wind Speed Gust Speed Precip Events Conditions
12:53 AM 70.0 °F - 69.1 °F 97% 30.16 in 9.0 mi Calm Calm - N/A   Clear
1:53 AM 72.0 °F - 66.9 °F 84% 30.15 in 10.0 mi South 5.8 mph - N/A   Mostly Cloudy
2:53 AM 70.0 °F - 68.0 °F 93% 30.15 in 10.0 mi South 3.5 mph - N/A   Mostly Cloudy
3:53 AM 71.1 °F - 66.9 °F 87% 30.15 in 10.0 mi Calm Calm - N/A   Overcast
4:53 AM 70.0 °F - 68.0 °F 93% 30.17 in 8.0 mi SW 10.4 mph - 0.01 in Rain Light Rain
5:13 AM 69.8 °F - 68.0 °F 94% 30.20 in 2.5 mi WSW 8.1 mph - 0.03 in Rain Heavy Rain
5:32 AM 69.8 °F - 66.2 °F 88% 30.20 in 1.8 mi SSW 6.9 mph - 0.12 in Rain Light Rain
5:36 AM 69.8 °F - 66.2 °F 88% 30.20 in 3.0 mi South 6.9 mph - 0.12 in Rain Light Rain
5:53 AM 69.1 °F - 66.9 °F 93% 30.18 in 8.0 mi South 8.1 mph - 0.13 in Rain Light Rain
6:07 AM 68.0 °F - 66.2 °F 94% 30.21 in 2.5 mi South 8.1 mph - 0.04 in Rain Light Rain
6:14 AM 68.0 °F - 66.2 °F 94% 30.21 in 9.0 mi South 6.9 mph - 0.04 in Rain Light Rain
6:53 AM 68.0 °F - 66.9 °F 96% 30.19 in 10.0 mi Calm Calm - 0.05 in   Overcast
7:53 AM 69.1 °F - 66.9 °F 93% 30.21 in 10.0 mi SSE 4.6 mph - N/A   Scattered Clouds
8:53 AM 71.1 °F - 68.0 °F 90% 30.23 in 10.0 mi South 4.6 mph - N/A   Scattered Clouds
9:53 AM 73.9 °F - 69.1 °F 85% 30.23 in 10.0 mi SSW 8.1 mph - N/A   Scattered Clouds
10:53 AM 73.9 °F - 68.0 °F 82% 30.22 in 10.0 mi SSW 6.9 mph - N/A   Scattered Clouds
11:53 AM 75.9 °F - 66.0 °F 71% 30.22 in 10.0 mi SSW 8.1 mph - 0.00 in   Clear
12:53 PM 79.0 °F - 64.9 °F 62% 30.20 in 10.0 mi Variable 6.9 mph - N/A   Partly Cloudy
1:53 PM 79.0 °F - 66.9 °F 66% 30.20 in 10.0 mi Variable 4.6 mph - 0.00 in   Partly Cloudy
2:02 PM 80.6 °F 82.7 °F 66.2 °F 61% 30.21 in 10.0 mi SW 3.5 mph - N/A   Partly Cloudy
2:53 PM 80.1 °F 82.3 °F 66.9 °F 64% 30.18 in 10.0 mi WSW 4.6 mph - N/A   Clear
3:53 PM 81.0 °F 83.8 °F 68.0 °F 65% 30.16 in 10.0 mi West 5.8 mph - N/A   Scattered Clouds
4:13 PM 80.6 °F 83.2 °F 68.0 °F 65% 30.17 in 10.0 mi SW 4.6 mph - N/A   Scattered Clouds
4:53 PM 82.0 °F 84.9 °F 68.0 °F 62% 30.14 in 10.0 mi West 5.8 mph - N/A   Clear
5:02 PM 82.4 °F 86.3 °F 69.8 °F 66% 30.16 in 10.0 mi Variable 4.6 mph - N/A   Partly Cloudy
5:53 PM 81.0 °F 83.8 °F 68.0 °F 65% 30.14 in 10.0 mi Calm Calm - N/A   Partly Cloudy
6:53 PM 80.1 °F 82.3 °F 66.9 °F 64% 30.15 in 10.0 mi Calm Calm - N/A   Scattered Clouds
7:53 PM 79.0 °F - 69.1 °F 72% 30.15 in 10.0 mi Calm Calm - N/A   Scattered Clouds
8:53 PM 75.0 °F - 72.0 °F 90% 30.16 in 10.0 mi South 4.6 mph - 0.03 in   Scattered Clouds
9:53 PM 73.0 °F - 72.0 °F 96% 30.16 in 5.0 mi South 4.6 mph - 0.01 in Rain Light Rain
10:47 PM 71.6 °F - 71.6 °F 100% 30.18 in 1.8 mi SE 5.8 mph - 0.00 in   Scattered Clouds
10:53 PM 72.0 °F - 71.1 °F 97% 30.16 in 1.0 mi Calm Calm - 0.00 in Rain Light Rain
11:00 PM 71.6 °F - 71.6 °F 100% 30.18 in 3.0 mi SE 4.6 mph - 0.00 in Rain Light Rain
11:31 PM 71.6 °F - 69.8 °F 94% 30.18 in 9.0 mi SE 5.8 mph - 0.01 in   Overcast
11:40 PM 71.6 °F - 69.8 °F 94% 30.18 in 9.0 mi SSE 4.6 mph - 0.01 in Rain Light Rain
11:53 PM 71.1 °F - 70.0 °F 96% 30.18 in 9.0 mi South 6.9 mph - 0.01 in   Overcast